Location: Unspecified
(0.0000°N, 0.0000°E)
Time: 18:39:30
(UTC+02:00)

Milstar 3 - Visible Passes

Search period start: 18 April 2015 00:00
Search period end: 28 April 2015 00:00
Orbit: 1100 x 5146 km, 28.2° (Epoch: 02 April)

Date Brightness Start Highest point End Pass type
(mag) Time Alt. Az. Time Alt. Az. Time Alt. Az.
18 Apr 5.8 04:12:41 39° SSE 04:12:41 39° SSE 04:31:47 10° SE visible
18 Apr 6.2 06:46:16 14° SW 07:05:42 34° S 07:34:02 10° ESE visible
19 Apr 6.2 03:14:52 26° SE 03:14:52 26° SE 03:24:16 10° SE visible
19 Apr 5.9 05:48:26 28° SW 05:57:25 34° S 06:24:50 10° SE visible
19 Apr 4.9 23:07:12 10° NNW 23:08:45 17° NNW 23:08:45 17° NNW visible
20 Apr 6.7 02:17:01 11° SE 02:17:01 11° SE 02:17:31 10° SE visible
20 Apr 5.8 04:50:36 36° S 04:50:36 36° S 05:15:39 10° SE visible
20 Apr 6.4 07:27:35 10° SW 07:51:51 35° S 08:20:13 10° ESE visible
20 Apr 4.5 22:07:01 10° NNW 22:10:57 19° NNE 22:10:57 19° NNE visible
21 Apr 6.0 03:52:44 31° SSE 03:52:44 31° SSE 04:07:15 10° SE visible
21 Apr 6.1 06:26:20 17° SW 06:43:01 33° S 07:11:06 10° ESE visible
21 Apr 4.8 21:07:51 10° N 21:09:26 11° NNE 21:11:20 10° NE visible
21 Apr 5.5 23:46:41 10° NW 23:46:43 10° NW 23:46:43 10° NW visible
22 Apr 6.4 02:54:53 18° SE 02:54:53 18° SE 02:59:55 10° SE visible
22 Apr 5.9 05:28:28 28° SSW 05:35:05 32° S 06:01:06 10° SE visible
22 Apr 4.4 22:46:01 10° NW 22:48:56 25° NNW 22:48:56 25° NNW visible
23 Apr 5.9 04:30:36 32° S 04:30:36 32° S 04:51:22 10° SE visible
23 Apr 6.3 07:05:45 10° SW 07:28:51 36° SSE 07:57:49 10° ESE visible
23 Apr 4.2 21:45:33 10° NNW 21:50:32 22° NNE 21:51:09 22° NE visible
24 Apr 6.2 03:32:44 24° SSE 03:32:44 24° SSE 03:42:49 10° SE visible
24 Apr 6.0 06:06:18 19° SW 06:20:26 32° S 06:48:02 10° ESE visible
24 Apr 4.7 20:45:27 10° N 20:48:22 13° NNE 20:51:31 10° NE visible
24 Apr 5.0 23:25:41 10° NW 23:26:57 17° NW 23:26:57 17° NW visible
25 Apr 6.6 02:34:51 11° SE 02:34:51 11° SE 02:35:46 10° SE visible
25 Apr 5.9 05:08:25 28° SSW 05:12:56 30° S 05:37:19 10° ESE visible
25 Apr 3.8 22:24:47 10° NW 22:29:11 36° N 22:29:11 36° N visible
26 Apr 6.0 04:10:33 27° SSE 04:10:33 27° SSE 04:27:08 10° SE visible
26 Apr 6.2 06:44:07 10° SW 07:05:51 37° SSE 07:35:14 10° ESE visible
26 Apr 4.0 21:24:00 10° NNW 21:29:24 26° NNE 21:31:26 23° NE visible
27 Apr 6.4 03:12:41 18° SE 03:12:41 18° SE 03:18:33 10° SE visible
27 Apr 6.0 05:46:15 21° SSW 05:57:56 31° S 06:24:52 10° ESE visible
27 Apr 4.6 20:23:14 10° NNW 20:27:19 16° NNE 20:31:24 10° ENE visible
27 Apr 4.5 23:04:40 10° WNW 23:07:16 27° NW 23:07:16 27° NW visible
